Starlink 11659

operational
NORAD ID: 63266 Int'l Des: 2025-053 Owner: SPXS Country: US Constellation: starlink
LEOCIRCULAR

About Starlink 11659

Description loading...

Live Position

Loading 3D Globe...

Upcoming Passes

Altitude History

Altitude vs Time

uPlot chart will show altitude changes over time

Two-Line Element Set

1 63266U 25053B 25305.90609461 .00260629 00000-0 19649-2 0 9994
2 63266 42.9984 162.3591 0001536 235.2725 124.7998 15.70920655 37571
Epoch: Nov 1, 2025 • Age: 32 hours

Current Status

Altitude 355.8 km
Velocity 7.70 km/s
Sub-Earth Point -8.70°S, 16.24°E
Launch Date Mar 15, 2025
Age 0.6 years
Type internet

Technical Details

Classification Payload
Mass 960.00 kg
Dry Mass 910.00 kg
Total Mass 960.00 kg
Length 0.30 m
Diameter 4.10 m
Span 29.00 m
Shape Box + pan
Manufacturer SPXS
Bus Type Starlink V2MD
Phase Status In Orbit
Owner/State SPXS/US

Large Constellations

Loading constellations...